Tracking 20083 objects as of 12-Dec-2019
HD Live streaming from Space Station
objects crossing your sky now

COSMOS 637

Track COSMOS 637 now!
COSMOS 637 is classified as:


NORAD ID: 7229
Int'l Code: 1974-017A
Perigee: 35,470.5 km
Apogee: 35,837.3 km
Inclination: 6.7 °
Period: 1,429.0 minutes
Semi major axis: 42024 km
RCS: 2.5118 m2 (large)
Launch date: March 26, 1974
Source: Commonwealth of Independent States (former USSR) (CIS)
Launch site: TYURATAM MISSILE AND SPACE COMPLEX (TTMTR)
aabbcc
Your satellite tracking list
Your tracking list is empty




NASA's NSSDC Master Catalog

Two Line Element Set (TLE):
1  7229U 74017A   19346.02070444 -.00000021  00000-0  00000+0 0  9996
2  7229   6.7421 296.5526 0043644 356.8368 137.8436  1.00772837 98214
Source of the keplerian elements: AFSPC